Wind_Speed
11 12 12 12 13 13 13 12 12 12 12 12 12 13 13 13 13 13 13 14 14 14 14 14 14 15 15 15 15 15 14 14 14 14 14 15 15 15 14 14 15 15 15
12 12 13 13 13 13 13 12 12 12 12 12 12 13 13 13 12 12 12 13 14 14 14 15 15 15 15 16 16 16 16 16 16 16 15 16 16 16 16 16 16 17 17
13 13 14 14 14 14 13 13 13 13 13 13 13 14 14 14 14 14 14 14 14 15 15 16 16 17 17 17 17 17 18 18 18 18 17 18 18 18 18 18 18 18 18
15 15 15 14 15 15 14 14 14 15 15 15 15 16 15 16 16 16 16 16 16 17 17 17 18 18 19 19 19 19 19 19 19 19 19 19 19 20 20 20 20 19 20
16 16 16 15 16 15 15 16 16 16 17 17 17 17 17 17 18 18 18 18 18 18 19 19 19 20 20 20 20 20 20 20 21 21 21 21 21 21 21 22 22 21 21
17 17 16 16 16 17 17 17 17 17 18 18 18 18 19 18 18 19 19 19 19 19 19 20 20 21 21 21 21 21 22 22 22 23 23 22 22 22 23 23 23 23 23
16 17 17 17 18 18 18 18 18 19 19 19 19 19 19 19 20 20 21 21 20 20 20 21 21 22 22 22 22 22 22 23 23 24 24 24 23 24 24 24 24 23 23
17 17 18 18 19 19 19 19 19 20 20 21 21 20 20 21 21 22 22 22 22 22 23 22 22 23 23 23 23 23 24 24 24 25 25 24 24 24 24 24 24 24 24
19 18 19 19 19 20 20 21 21 21 21 22 22 21 21 22 22 22 23 23 23 23 23 24 24 24 24 24 24 25 25 25 25 25 25 25 25 25 26 25 25 25 25
20 20 20 21 21 21 21 22 22 21 22 23 22 22 23 23 23 23 24 24 24 24 24 24 24 25 25 25 26 26 26 26 26 26 26 26 27 27 27 26 26 26 26
20 21 21 21 22 22 22 22 22 22 23 23 23 23 24 24 24 24 24 25 25 25 25 25 26 26 26 27 28 27 27 27 27 27 26 27 27 28 27 27 26 27 27
21 22 22 22 22 22 22 23 22 23 23 23 23 24 24 25 25 25 25 25 25 25 26 26 27 27 27 28 28 28 28 28 28 28 27 28 28 28 28 27 27 27 27
23 23 23 23 23 23 23 23 23 23 24 24 24 24 25 25 26 26 26 26 26 26 27 27 27 27 28 28 28 28 28 28 28 28 28 28 28 28 28 27 28 28 28
25 25 25 25 25 25 25 25 25 25 25 26 26 26 26 26 27 27 27 27 27 27 27 27 28 28 28 28 29 28 28 28 28 28 28 29 28 28 28 28 28 28 28
26 26 27 26 26 26 26 26 27 27 27 28 28 28 28 28 28 28 28 28 28 28 29 28 29 29 29 28 28 28 29 29 29 28 28 28 29 28 28 28 29 29 29
27 27 28 28 28 27 27 28 28 28 28 29 30 30 30 30 30 30 30 30 30 30 30 29 29 30 30 30 29 29 30 30 29 29 29 30 30 30 30 30 30 30 30
28 29 29 28 28 28 28 29 30 30 30 30 31 31 31 31 31 31 31 31 31 31 31 30 30 31 31 31 31 31 31 31 31 31 31 31 31 30 31 31 31 31 32
29 29 30 30 30 30 30 30 31 31 31 32 32 33 32 32 32 32 32 32 32 31 32 32 32 32 32 32 32 32 32 32 32 32 32 32 32 32 32 33 33 34 34
31 31 31 32 32 32 32 32 32 33 32 32 33 33 33 33 32 32 32 32 32 32 33 33 33 33 33 34 34 33 33 33 33 33 34 33 33 34 34 34 35 36 36
33 33 34 34 34 34 34 34 34 34 34 34 34 33 33 34 34 34 33 33 33 33 34 34 34 34 34 34 34 34 34 34 34 34 35 35 35 35 35 35 36 37 36
34 34 35 35 35 36 35 35 36 36 36 36 35 35 34 34 34 35 34 34 34 34 34 35 35 35 35 35 35 34 34 35 35 35 36 36 36 36 37 36 36 37 37
34 35 35 36 36 37 37 37 37 38 38 38 38 37 36 36 36 36 36 36 36 36 36 36 36 36 36 36 36 36 37 37 37 37 37 37 38 38 39 38 38 38 38
35 36 36 36 37 37 37 37 38 38 39 39 39 38 38 38 37 37 37 37 37 36 36 36 36 36 37 37 37 38 38 38 39 39 39 39 39 39 40 40 39 40 40
36 36 36 37 38 38 39 39 40 40 41 40 40 40 40 40 39 39 38 38 38 38 38 38 38 38 38 39 39 39 39 39 40 41 40 40 40 40 41 42 42 42 42
36 36 37 37 38 38 39 40 41 41 41 41 41 41 41 41 40 40 40 40 40 40 39 39 39 40 40 40 40 40 41 41 42 42 41 41 42 42 42 43 43 44 44
37 38 38 38 39 39 39 40 41 41 42 42 42 42 42 41 41 41 40 41 40 40 40 41 41 40 40 41 41 41 42 42 43 43 43 43 44 44 44 45 45 45 45
Wind_Direction
292 295 297 298 299 298 297 294 291 291 291 290 286 285 288 289 289 289 285 280 280 280 280 283 285 286 289 293 292 287 284 284 284 284 286 287 289 290 291 292 293 292 292
290 294 296 297 298 297 295 294 292 291 292 291 288 287 289 289 288 290 290 286 284 283 281 282 286 287 289 291 291 288 286 284 284 283 284 286 287 287 286 286 288 289 290
287 292 296 296 296 296 293 293 292 293 292 292 291 290 290 288 287 287 289 288 286 284 283 282 284 284 286 287 286 286 287 285 285 283 282 282 285 285 285 285 288 289 288
285 290 293 295 296 296 293 291 291 292 293 294 293 292 290 288 286 285 285 285 284 282 283 283 283 284 283 285 285 285 286 285 284 282 282 283 285 286 287 288 289 288 288
282 286 288 291 294 294 292 292 292 293 293 294 292 291 288 288 287 285 285 285 284 282 281 282 283 284 283 283 284 285 285 285 284 283 283 283 285 287 286 287 288 289 289
280 282 285 287 290 291 290 291 292 293 293 293 292 291 290 289 287 286 285 285 284 283 282 282 283 284 283 282 283 284 286 285 285 284 283 284 286 287 286 286 287 287 287
280 282 284 284 286 287 287 288 290 291 293 292 292 292 292 289 288 287 287 285 285 284 283 282 282 283 283 282 284 285 286 286 285 285 284 282 284 286 286 288 289 289 290
280 283 284 283 284 284 283 285 288 290 291 292 292 292 291 291 288 286 286 285 285 285 284 283 282 282 282 281 284 285 287 288 287 286 284 283 283 286 286 288 289 290 290
280 282 284 284 285 284 285 286 288 290 291 291 291 292 291 290 288 286 285 284 284 285 285 283 282 282 282 282 282 284 285 285 285 285 283 283 284 287 288 288 287 289 290
282 285 286 288 287 287 287 287 289 289 290 292 291 292 291 289 289 286 283 283 283 283 283 284 284 283 283 283 283 283 284 284 283 283 281 282 284 286 287 288 287 287 288
281 284 286 288 288 287 287 288 288 289 289 290 290 290 290 289 288 287 285 284 283 283 283 284 285 285 284 284 283 283 284 283 282 282 283 283 283 284 286 287 287 286 287
280 283 285 287 288 286 286 288 289 289 289 289 290 290 289 290 289 288 288 286 283 283 284 284 285 285 286 286 285 285 284 282 280 281 282 283 283 283 284 286 286 286 286
281 282 284 286 286 284 285 287 288 289 290 290 289 291 290 290 291 290 290 287 283 283 284 285 285 285 287 288 288 287 285 283 281 281 280 281 282 283 283 285 285 285 286
282 283 284 285 286 285 284 285 287 288 288 289 289 290 290 289 290 289 289 288 286 285 284 284 284 285 287 289 289 287 286 284 283 282 281 282 282 283 283 284 285 285 285
281 282 283 284 284 284 283 284 285 287 288 289 289 289 289 289 288 288 288 287 286 286 285 283 283 284 286 287 288 289 289 286 284 284 284 284 283 282 283 284 285 285 285
279 281 283 282 282 283 284 284 284 286 287 287 288 288 289 288 288 287 287 287 286 286 285 284 284 284 285 286 286 287 287 285 284 285 286 285 284 282 282 283 285 284 284
280 281 282 282 282 282 284 285 284 285 287 288 288 288 288 288 287 287 286 285 285 286 285 284 284 285 284 284 284 285 286 284 283 284 285 285 285 284 283 284 285 285 285
280 281 282 283 282 283 284 286 287 287 287 286 286 287 287 287 287 287 286 285 285 286 286 285 284 285 283 282 283 284 284 283 283 284 285 285 285 285 285 285 286 287 286
280 281 281 282 282 283 285 286 287 288 288 288 288 288 287 285 285 285 286 286 285 286 286 285 284 284 283 282 282 282 283 282 282 282 283 284 285 285 285 286 287 288 287
280 281 281 282 283 283 284 285 286 287 287 288 288 288 287 286 285 284 284 285 286 286 287 286 284 284 284 282 281 282 282 281 281 282 282 283 285 285 286 287 288 289 288
281 282 282 283 284 284 285 286 286 286 286 287 287 287 286 286 285 284 283 285 286 286 287 286 284 284 283 281 281 282 282 281 282 282 282 282 283 285 286 287 288 288 288
282 282 283 283 284 284 285 286 286 286 286 286 287 287 286 285 285 284 284 285 286 286 286 286 285 284 282 280 280 282 282 282 282 283 282 281 282 284 285 285 286 287 287
284 284 284 285 285 284 284 285 285 285 286 286 286 286 286 285 284 285 286 286 285 286 285 285 284 284 284 282 280 281 282 282 282 283 283 281 282 283 284 285 285 286 287
285 285 286 286 286 286 285 284 284 285 285 286 286 286 285 284 284 284 285 285 285 284 284 284 283 284 284 283 282 282 282 282 283 284 283 283 283 283 283 284 285 286 286
286 287 288 288 287 287 287 286 286 286 286 285 285 285 284 283 283 284 284 285 285 285 284 284 284 284 284 284 283 282 280 280 281 282 283 283 283 284 284 285 285 286 286
286 286 287 288 288 289 289 288 288 287 286 286 286 285 283 282 283 283 283 284 284 284 284 284 283 283 283 283 284 283 280 280 280 281 282 283 283 283 284 285 286 286 286
Height
5840 5839 5838 5837 5836 5835 5835 5834 5833 5833 5832 5832 5832 5831 5831 5831 5830 5830 5830 5830 5830 5830 5830 5830 5830 5829 5829 5828 5828 5828 5827 5827 5826 5826 5825 5824 5824 5823 5823 5822 5820 5819 5818
5837 5836 5835 5834 5833 5832 5831 5830 5830 5829 5829 5828 5828 5828 5828 5827 5827 5827 5826 5826 5826 5826 5826 5826 5826 5825 5825 5825 5824 5824 5823 5823 5822 5822 5821 5820 5819 5819 5818 5817 5816 5815 5814
5834 5833 5832 5830 5829 5828 5827 5826 5826 5826 5825 5825 5824 5824 5824 5823 5823 5823 5823 5822 5822 5822 5822 5821 5821 5821 5821 5820 5820 5819 5819 5818 5817 5817 5816 5816 5815 5814 5813 5812 5811 5810 5809
5830 5829 5828 5827 5826 5824 5824 5823 5822 5822 5821 5821 5820 5820 5819 5819 5818 5818 5818 5818 5817 5817 5817 5817 5816 5816 5815 5815 5815 5814 5813 5813 5812 5812 5811 5810 5809 5808 5807 5806 5805 5804 5803
5825 5825 5824 5823 5822 5820 5820 5819 5818 5817 5817 5816 5816 5815 5815 5814 5813 5813 5813 5812 5812 5812 5811 5811 5811 5810 5809 5809 5809 5808 5808 5807 5806 5806 5805 5804 5803 5802 5801 5800 5799 5798 5797
5821 5820 5819 5818 5817 5816 5815 5815 5814 5813 5812 5811 5811 5810 5809 5809 5808 5808 5807 5807 5806 5806 5806 5805 5805 5804 5804 5803 5803 5803 5802 5801 5800 5799 5798 5797 5796 5795 5794 5793 5792 5790 5790
5815 5815 5814 5814 5813 5812 5811 5810 5809 5808 5807 5806 5805 5804 5804 5803 5802 5802 5801 5800 5800 5800 5800 5799 5799 5798 5798 5797 5797 5796 5795 5794 5793 5792 5791 5790 5789 5787 5786 5785 5784 5782 5781
5810 5810 5809 5808 5808 5807 5806 5805 5804 5803 5802 5801 5800 5799 5798 5797 5796 5796 5795 5794 5794 5793 5793 5793 5792 5791 5791 5790 5790 5789 5788 5787 5785 5784 5783 5782 5781 5779 5778 5777 5776 5775 5774
5805 5805 5804 5803 5802 5801 5800 5799 5798 5797 5796 5795 5794 5793 5792 5791 5790 5789 5789 5788 5787 5787 5786 5786 5785 5784 5783 5783 5782 5782 5781 5779 5777 5776 5775 5774 5773 5771 5770 5769 5768 5767 5766
5800 5799 5799 5798 5797 5796 5795 5794 5793 5791 5790 5789 5788 5787 5786 5785 5784 5783 5782 5781 5780 5780 5779 5778 5777 5776 5775 5774 5774 5773 5772 5771 5770 5768 5767 5766 5765 5764 5762 5761 5760 5759 5758
5794 5794 5793 5792 5791 5790 5789 5788 5787 5786 5784 5783 5782 5781 5780 5778 5777 5776 5775 5774 5773 5772 5771 5770 5769 5768 5767 5766 5765 5764 5763 5762 5761 5760 5759 5758 5757 5756 5754 5753 5752 5751 5750
5788 5788 5787 5786 5785 5784 5783 5782 5781 5780 5778 5777 5775 5774 5773 5771 5770 5769 5767 5766 5765 5764 5763 5763 5762 5760 5759 5758 5756 5755 5754 5753 5752 5751 5751 5750 5748 5747 5746 5745 5744 5742 5741
5782 5781 5781 5780 5779 5778 5777 5776 5775 5773 5772 5770 5769 5768 5766 5765 5763 5761 5760 5758 5757 5756 5755 5754 5753 5752 5750 5749 5747 5746 5745 5744 5743 5742 5742 5741 5739 5738 5737 5736 5735 5734 5732
5775 5775 5774 5773 5772 5771 5770 5769 5768 5766 5765 5764 5762 5761 5759 5758 5756 5754 5752 5751 5749 5748 5747 5746 5744 5743 5742 5740 5739 5737 5736 5735 5734 5734 5733 5732 5731 5730 5729 5727 5726 5725 5724
5768 5768 5767 5766 5765 5764 5762 5761 5760 5759 5758 5756 5755 5753 5751 5750 5748 5746 5744 5742 5741 5739 5738 5737 5736 5735 5733 5732 5731 5729 5728 5727 5726 5725 5724 5723 5721 5721 5720 5718 5717 5716 5715
5761 5760 5759 5758 5757 5756 5755 5753 5752 5751 5749 5748 5746 5744 5742 5741 5739 5737 5735 5734 5732 5730 5729 5728 5727 5726 5725 5723 5722 5721 5719 5718 5717 5716 5715 5714 5712 5711 5710 5709 5708 5707 5705
5752 5752 5751 5750 5749 5748 5747 5745 5744 5743 5741 5739 5737 5735 5733 5731 5730 5728 5726 5724 5723 5721 5720 5719 5718 5717 5715 5714 5713 5711 5710 5709 5708 5707 5706 5704 5703 5702 5701 5699 5698 5696 5695
5744 5743 5742 5742 5741 5739 5738 5737 5735 5733 5732 5730 5728 5726 5724 5722 5720 5718 5717 5715 5713 5712 5710 5709 5708 5707 5706 5704 5703 5702 5701 5700 5698 5697 5696 5695 5693 5692 5691 5689 5687 5686 5684
5735 5734 5733 5732 5731 5730 5729 5727 5725 5723 5722 5720 5718 5716 5714 5712 5710 5708 5707 5705 5704 5702 5701 5699 5698 5697 5695 5694 5693 5691 5690 5689 5688 5687 5686 5685 5683 5682 5680 5678 5676 5675 5672
5725 5724 5723 5722 5721 5720 5718 5717 5715 5713 5711 5709 5708 5706 5704 5701 5700 5698 5697 5695 5694 5692 5691 5689 5687 5686 5684 5683 5682 5681 5679 5678 5677 5676 5675 5674 5672 5671 5669 5667 5665 5663 5661
5715 5714 5713 5712 5710 5709 5707 5706 5704 5702 5700 5698 5697 5695 5693 5691 5689 5687 5686 5684 5683 5681 5680 5678 5676 5675 5673 5672 5671 5670 5668 5668 5666 5665 5664 5663 5661 5659 5658 5655 5653 5651 5649
5704 5703 5702 5700 5699 5698 5696 5695 5693 5691 5689 5687 5685 5683 5681 5679 5678 5676 5675 5673 5672 5670 5668 5667 5665 5664 5662 5661 5660 5658 5657 5656 5655 5654 5652 5651 5649 5647 5645 5643 5641 5639 5637
5694 5692 5691 5689 5687 5686 5684 5682 5681 5679 5677 5675 5673 5671 5669 5667 5666 5664 5663 5661 5660 5658 5656 5655 5654 5652 5651 5649 5648 5646 5645 5644 5643 5641 5640 5638 5637 5635 5633 5631 5629 5627 5625
5683 5681 5679 5677 5676 5674 5672 5670 5668 5666 5664 5662 5660 5658 5656 5655 5653 5652 5651 5649 5647 5646 5644 5643 5641 5640 5639 5637 5635 5634 5632 5631 5630 5628 5627 5625 5623 5622 5620 5618 5616 5614 5612
5672 5670 5668 5666 5664 5662 5660 5658 5655 5653 5651 5649 5647 5645 5643 5642 5640 5639 5637 5636 5634 5633 5632 5630 5628 5627 5626 5624 5622 5621 5619 5618 5616 5615 5613 5611 5610 5608 5606 5604 5602 5600 5598
5661 5659 5657 5655 5652 5650 5647 5645 5643 5640 5638 5636 5633 5631 5629 5628 5627 5625 5624 5622 5621 5619 5618 5616 5615 5613 5612 5610 5609 5607 5606 5604 5602 5601 5599 5597 5596 5594 5592 5590 5588 5586 5584